Tampa Macdill AFB, FL

12:52 AM EDT on October 21, 2017 (GMT -0400)
MacDill Air Force Base

Weather History for KMCF - April, 2013

Change the Weather History Date:

Sunday, April 28, 2013

  Actual Average Record
Temperature  
Mean Temperature 77 °F -  
Max Temperature 88 °F 81 °F 93 °F (2017)
Min Temperature 67 °F 64 °F 59 °F (2004)
Cooling Degree Days 12    
Growing Degree Days 27 (Base 50)    
Moisture  
Dew Point 65 °F    
Average Humidity 67    
Maximum Humidity 91    
Minimum Humidity 42    
Precipitation  
Precipitation 0.00 in - - ()
Sea Level Pressure  
Sea Level Pressure 30.07 in    
Wind  
Wind Speed 11 mph (ESE)    
Max Wind Speed 15 mph    
Max Gust Speed 23 mph    
Visibility 10 miles    
Events      
Averages and records for this station are not official NWS values.
T = Trace of Precipitation, MM = Missing Value Source: NWS Daily Summary

Daily Weather History Graph

Daily Weather History Graph

Search for Another Location

Airport or City:

Trip Planner

Search our weather history database for the weather conditions in past years. The results will help you decide how hot, cold, wet, or windy it might be!

Date:

Astronomy

Apr. 28, 2013 Rise Set
Actual Time 6:52 AM EDT 8:02 PM EDT
Civil Twilight 6:28 AM EDT 8:27 PM EDT
Nautical Twilight 5:58 AM EDT 8:56 PM EDT
Astronomical Twilight 5:28 AM EDT 9:26 PM EDT
Moon 11:22 PM EDT (4/28) 9:17 AM EDT (4/28)
Length of Visible Light 13h 59m
Length of Day
13h 10m
Waning Gibbous, 89% of the Moon is Illuminated
Apr 28
Waning Gibbous
May 2
Last Quarter
May 9
New
May 18
First Quarter
May 25
Full

Hourly Weather History & Observations

Time (EDT) Temp. Heat Index Dew Point Humidity Pressure Visibility Wind Dir Wind Speed Gust Speed Precip Events Conditions
12:58 AM 71.8 °F - 67.5 °F 86% 30.14 in 10.0 mi East 15.0 mph - N/A   Scattered Clouds
1:58 AM 70.7 °F - 67.1 °F 88% 30.12 in 10.0 mi East 11.5 mph - N/A   Clear
2:58 AM 69.6 °F - 66.4 °F 89% 30.11 in 10.0 mi East 11.5 mph - N/A   Clear
3:58 AM 69.6 °F - 66.2 °F 89% 30.09 in 10.0 mi ESE 12.7 mph - N/A   Clear
4:58 AM 68.9 °F - 66.0 °F 90% 30.09 in 10.0 mi ESE 12.7 mph - N/A   Clear
5:58 AM 68.7 °F - 65.7 °F 90% 30.08 in 10.0 mi ESE 10.4 mph - N/A   Clear
6:58 AM 67.8 °F - 65.1 °F 91% 30.09 in 10.0 mi ESE 8.1 mph - N/A   Clear
8:58 AM 74.1 °F - 65.5 °F 74% 30.12 in 10.0 mi ESE 10.4 mph - N/A   Clear
9:58 AM 77.0 °F - 66.4 °F 70% 30.12 in 10.0 mi SE 13.8 mph - N/A   Clear
10:58 AM 80.1 °F 81.7 °F 64.2 °F 58% 30.13 in 10.0 mi ESE 12.7 mph - N/A   Clear
11:58 AM 81.9 °F 83.4 °F 64.2 °F 55% 30.11 in 10.0 mi ESE 11.5 mph 17.3 mph N/A   Clear
12:12 PM 82.4 °F 83.4 °F 62.6 °F 51% 30.10 in 10.0 mi ESE 12.7 mph - N/A   Clear
12:58 PM 84.0 °F 84.9 °F 63.1 °F 49% 30.09 in 10.0 mi East 11.5 mph 18.4 mph N/A   Clear
1:43 PM 86.0 °F 86.1 °F 60.8 °F 43% 30.06 in 10.0 mi East 11.5 mph 16.1 mph N/A   Clear
1:58 PM 85.5 °F 85.9 °F 61.7 °F 45% 30.06 in 10.0 mi SE 11.5 mph 23.0 mph N/A   Clear
2:58 PM 87.3 °F 87.5 °F 61.3 °F 42% 30.04 in 10.0 mi SE 9.2 mph - N/A   Clear
3:58 PM 86.9 °F 87.2 °F 61.9 °F 43% 30.02 in 10.0 mi SSE 9.2 mph - N/A   Partly Cloudy
4:58 PM 87.3 °F 88.3 °F 63.3 °F 45% 30.00 in 10.0 mi SE 12.7 mph - N/A   Partly Cloudy
5:58 PM 84.4 °F 87.9 °F 68.5 °F 59% 29.99 in 10.0 mi WSW 6.9 mph - N/A   Partly Cloudy
6:58 PM 82.6 °F 85.7 °F 68.2 °F 62% 29.99 in 10.0 mi West 6.9 mph - N/A   Mostly Cloudy
7:58 PM 79.5 °F - 66.9 °F 65% 29.98 in 10.0 mi NW 5.8 mph - N/A   Mostly Cloudy
8:58 PM 76.6 °F - 68.5 °F 76% 30.01 in 10.0 mi NNW 5.8 mph - N/A   Mostly Cloudy
9:58 PM 74.8 °F - 66.6 °F 75% 30.02 in 10.0 mi NE 3.5 mph - N/A   Mostly Cloudy
10:58 PM 74.8 °F - 68.2 °F 80% 30.03 in 10.0 mi ENE 5.8 mph - N/A   Mostly Cloudy
11:58 PM 75.7 °F - 63.5 °F 66% 30.04 in 10.0 mi ESE 12.7 mph - N/A   Mostly Cloudy